FW4377 Weather Reports


time (UTC)temp
C
wind
direction
speed
KPH
gust
KPH
rain 1hr
cm
rain 24hr
cm
rain mn
cm
humidity
%
barometer
mb
20260507130103 11 309 8.0 14.5 0.00 0.38 0.25 70 1007.8
20260507124607 11 351 6.4 24.1 0.03 0.38 0.25 75 1007.7
20260507123105 10 303 8.0 19.3 0.03 0.38 0.25 80 1007.4
20260507121555 10 297 4.8 12.9 0.03 0.38 0.25 84 1007.5
20260507120042 9 311 4.8 12.9 0.03 0.38 0.25 87 1007.5
20260507114608 9 300 4.8 9.7 0.00 0.36 0.23 88 1007.3
20260507113047 8 328 3.2 6.4 0.00 0.36 0.23 89 1007.5
20260507111550 8 339 1.6 6.4 0.00 0.36 0.23 89 1007.3
20260507110046 8 296 1.6 4.8 0.03 0.36 0.23 89 1007.6
20260507104550 8 207 1.6 4.8 0.05 0.36 0.23 89 1007.5
20260507103047 8 0 1.6 3.2 0.05 0.36 0.23 89 1007.0
20260507101557 8 338 1.6 4.8 0.13 0.36 0.23 88 1007.1
20260507100056 8 307 3.2 12.9 0.13 0.33 0.20 87 1006.9
20260507094549 9 16 3.2 14.5 0.13 0.30 0.18 87 1006.8
20260507093048 9 333 6.4 16.1 0.13 0.30 0.18 87 1006.8
20260507091548 10 341 6.4 17.7 0.05 0.23 0.10 86 1006.8
20260507090050 10 306 4.8 16.1 0.05 0.20 0.08 85 1006.9
20260507084550 10 298 9.7 16.1 0.05 0.18 0.05 85 1006.6
20260507083105 10 316 6.4 16.1 0.05 0.18 0.05 85 1006.4
20260507081553 10 340 12.9 22.5 0.05 0.18 0.05 83 1006.6
20260507080050 11 319 11.3 25.7 0.03 0.15 0.03 82 1006.5
20260507074558 11 314 12.9 22.5 0.00 0.13 0.00 80 1006.6
20260507073058 11 310 11.3 24.1 0.00 0.13 0.00 81 1005.8
20260507071549 12 331 6.4 12.9 0.00 0.13 0.00 85 1006.0
20260507070047 12 290 4.8 20.9 0.00 0.13 0.00 85 1005.8
20260507064550 12 295 6.4 12.9 0.00 0.13 0.00 86 1005.9
20260507063050 12 21 6.4 12.9 0.00 0.13 0.00 87 1005.7
20260507061545 12 322 8.0 17.7 0.00 0.13 0.00 86 1005.7
20260507060043 12 317 8.0 17.7 0.00 0.13 0.00 86 1005.9
20260507054546 13 285 11.3 20.9 0.00 0.13 0.00 86 1006.1
20260507053048 13 330 11.3 19.3 0.00 0.13 0.00 87 1005.9
20260507051550 13 302 4.8 12.9 0.00 0.13 0.00 87 1005.8
20260507050050 14 326 8.0 20.9 0.00 0.13 0.00 87 1005.8
20260507044549 15 269 8.0 17.7 0.00 0.13 0.00 90 1005.7
20260507043045 15 247 4.8 14.5 0.03 0.13 0.00 91 1005.8
20260507041548 15 249 6.4 14.5 0.03 0.13 0.00 92 1005.9
20260507040046 15 260 6.4 12.9 0.03 0.13 0.00 92 1006.0
20260507034547 15 264 6.4 14.5 0.03 0.13 0.13 91 1005.7
20260507033042 15 234 11.3 24.1 0.00 0.10 0.10 90 1005.7
20260507031541 15 255 11.3 19.3 0.00 0.10 0.10 90 1005.3
20260507030050 15 222 6.4 20.9 0.00 0.10 0.10 90 1005.1
20260507024601 15 263 12.9 20.9 0.00 0.10 0.10 90 1005.4
20260507023047 15 233 9.7 19.3 0.00 0.10 0.10 90 1005.5
20260507021551 14 255 9.7 19.3 0.00 0.10 0.10 90 1005.4
20260507020107 14 214 6.4 17.7 0.00 0.10 0.10 90 1005.6
20260507014605 14 245 9.7 19.3 0.00 0.10 0.10 91 1005.7
20260507013053 14 210 9.7 16.1 0.00 0.10 0.10 91 1005.8
20260507011551 13 295 12.9 20.9 0.00 0.10 0.10 91 1005.9
20260507010050 13 210 11.3 19.3 0.00 0.10 0.10 91 1006.0
20260507004553 13 224 8.0 22.5 0.00 0.10 0.10 91 1005.9
20260507003047 13 207 12.9 22.5 0.03 0.10 0.10 91 1006.0
20260507001553 13 186 8.0 25.7 0.05 0.10 0.10 91 1005.8
20260507000049 13 238 8.0 20.9 0.05 0.10 0.10 91 1005.7
20260506234552 13 219 8.0 16.1 0.05 0.10 0.10 91 1005.8
20260506233048 13 185 6.4 20.9 0.03 0.08 0.08 91 1005.7
20260506231557 13 207 9.7 27.4 0.00 0.05 0.05 90 1005.8
20260506230055 13 178 9.7 25.7 0.00 0.05 0.05 90 1005.8
20260506224552 14 247 12.9 29.0 0.00 0.05 0.05 90 1005.7
20260506223054 14 152 12.9 25.7 0.00 0.05 0.05 89 1005.9
20260506221549 15 230 9.7 24.1 0.00 0.05 0.05 89 1006.0
20260506220049 15 207 11.3 29.0 0.00 0.05 0.05 88 1006.4
20260506214547 15 224 14.5 25.7 0.03 0.05 0.05 87 1006.6
20260506213102 15 180 12.9 22.5 0.03 0.05 0.05 86 1006.6
20260506211603 15 172 11.3 24.1 0.03 0.05 0.05 86 1006.7
20260506210050 15 217 11.3 27.4 0.03 0.05 0.05 85 1006.8
20260506204555 16 225 12.9 30.6 0.03 0.03 0.03 82 1006.9
20260506203049 16 241 12.9 32.2 0.03 0.03 0.03 81 1006.9
20260506201600 16 219 12.9 30.6 0.03 0.03 0.03 81 1006.5
20260506200058 16 228 12.9 27.4 0.03 0.03 0.03 80 1006.6
20260506194558 16 205 11.3 25.7 0.00 0.00 0.00 78 1007.0
20260506193046 17 256 11.3 24.1 0.00 0.00 0.00 76 1007.0
20260506191550 17 236 12.9 27.4 0.00 0.00 0.00 73 1006.9
20260506190051 18 240 16.1 32.2 0.00 0.00 0.00 72 1006.9
20260506184546 18 202 19.3 33.8 0.00 0.00 0.00 71 1007.0
20260506183058 18 229 12.9 25.7 0.00 0.00 0.00 71 1007.0
20260506181548 18 214 14.5 30.6 0.00 0.00 0.00 69 1007.2
20260506180050 18 219 16.1 33.8 0.00 0.00 0.00 69 1007.4
20260506174546 18 194 19.3 30.6 0.00 0.00 0.00 70 1007.6
20260506173051 19 195 17.7 32.2 0.00 0.00 0.00 68 1007.7
20260506171546 18 169 12.9 25.7 0.00 0.00 0.00 70 1007.7
20260506164548 18 212 9.7 22.5 0.00 0.00 0.00 70 1007.9
20260506163102 18 155 9.7 20.9 0.00 0.00 0.00 69 1008.1
20260506161550 18 219 11.3 25.7 0.00 0.00 0.00 69 1008.4
20260506160048 19 194 8.0 27.4 0.00 0.00 0.00 68 1008.7
20260506154546 20 162 8.0 19.3 0.00 0.00 0.00 67 1009.0
20260506153047 20 195 12.9 32.2 0.00 0.00 0.00 66 1009.1
20260506151549 19 218 16.1 32.2 0.00 0.00 0.00 68 1009.3
20260506150049 18 207 17.7 35.4 0.00 0.00 0.00 70 1009.4
20260506144559 18 183 16.1 25.7 0.00 0.00 0.00 70 1009.3
20260506143045 18 154 17.7 35.4 0.00 0.00 0.00 72 1009.1
20260506141541 17 200 14.5 24.1 0.00 0.00 0.00 75 1009.1
20260506140052 17 176 8.0 19.3 0.00 0.00 0.00 76 1009.3
20260506134552 17 233 16.1 30.6 0.00 0.00 0.00 76 1009.6
20260506133048 17 184 17.7 29.0 0.00 0.00 0.00 76 1009.8
20260506131548 17 231 16.1 32.2 0.00 0.00 0.00 77 1009.6